| time (UTC) | temp F | wind direction | speed MPH | gust MPH | rain 1hr in | rain 24hr in | rain mn in | humidity % | barometer mb |
| 20260508054003 | 45 | 280 | 1.0 | 5.0 | 0.00 | 0.00 | 0.00 | 60 | 1019.3 |
| 20260508053503 | 45 | 288 | 2.0 | 5.0 | 0.00 | 0.00 | 0.00 | 60 | 1019.3 |
| 20260508053016 | 45 | 297 | 2.0 | 4.0 | 0.00 | 0.00 | 0.00 | 61 | 1019.4 |
| 20260508052507 | 44 | 313 | 0.0 | 4.0 | 0.00 | 0.00 | 0.00 | 62 | 1019.4 |
| 20260508052003 | 44 | 321 | 0.0 | 4.0 | 0.00 | 0.00 | 0.00 | 63 | 1019.5 |
| 20260508051520 | 44 | 321 | 2.0 | 4.0 | 0.00 | 0.00 | 0.00 | 63 | 1019.5 |
| 20260508051006 | 44 | 323 | 0.0 | 3.0 | 0.00 | 0.00 | 0.00 | 65 | 1019.5 |
| 20260508050506 | 44 | 13 | 0.0 | 3.0 | 0.00 | 0.00 | 0.00 | 65 | 1019.4 |
| 20260508050034 | 43 | 64 | 0.0 | 2.0 | 0.00 | 0.00 | 0.00 | 68 | 1019.5 |
| 20260508045506 | 43 | 282 | 0.0 | 4.0 | 0.00 | 0.00 | 0.00 | 70 | 1019.4 |
| 20260508045006 | 43 | 78 | 0.0 | 5.0 | 0.00 | 0.00 | 0.00 | 70 | 1019.3 |
| 20260508044527 | 42 | 48 | 2.0 | 5.0 | 0.00 | 0.00 | 0.00 | 74 | 1019.3 |
| 20260508044009 | 41 | 46 | 2.0 | 4.0 | 0.00 | 0.00 | 0.00 | 79 | 1019.3 |
| 20260508043509 | 42 | 209 | 0.0 | 3.0 | 0.00 | 0.00 | 0.00 | 78 | 1019.3 |
| 20260508043031 | 41 | 229 | 1.0 | 3.0 | 0.00 | 0.00 | 0.00 | 79 | 1019.1 |
| 20260508042504 | 42 | 199 | 0.0 | 0.0 | 0.00 | 0.00 | 0.00 | 79 | 1019.1 |
| 20260508042006 | 41 | 212 | 0.0 | 0.0 | 0.00 | 0.00 | 0.00 | 80 | 1019.2 |
| 20260508041517 | 41 | 140 | 0.0 | 0.0 | 0.00 | 0.00 | 0.00 | 79 | 1019.0 |
| 20260508041006 | 42 | 223 | 0.0 | 0.0 | 0.00 | 0.00 | 0.00 | 78 | 1019.2 |
| 20260508040509 | 42 | 261 | 0.0 | 0.0 | 0.00 | 0.00 | 0.00 | 77 | 1019.2 |
| 20260508040033 | 42 | 240 | 0.0 | 0.0 | 0.00 | 0.00 | 0.00 | 78 | 1019.2 |
| 20260508035506 | 42 | 198 | 0.0 | 0.0 | 0.00 | 0.00 | 0.00 | 78 | 1019.2 |
| 20260508035007 | 42 | 297 | 0.0 | 3.0 | 0.00 | 0.00 | 0.00 | 78 | 1019.2 |
| 20260508034525 | 42 | 301 | 0.0 | 3.0 | 0.00 | 0.00 | 0.00 | 77 | 1019.3 |
| 20260508034008 | 43 | 76 | 0.0 | 4.0 | 0.00 | 0.00 | 0.00 | 76 | 1019.2 |
| 20260508033010 | 43 | 326 | 0.0 | 3.0 | 0.00 | 0.00 | 0.00 | 72 | 1019.1 |
| 20260508032503 | 44 | 24 | 0.0 | 3.0 | 0.00 | 0.00 | 0.00 | 69 | 1018.9 |
| 20260508032003 | 44 | 200 | 0.0 | 5.0 | 0.00 | 0.00 | 0.00 | 71 | 1018.9 |
| 20260508031512 | 44 | 187 | 0.0 | 6.0 | 0.00 | 0.00 | 0.00 | 69 | 1018.8 |
| 20260508031004 | 44 | 92 | 4.0 | 7.0 | 0.00 | 0.00 | 0.00 | 69 | 1018.7 |
| 20260508030503 | 44 | 210 | 1.0 | 9.0 | 0.00 | 0.00 | 0.00 | 69 | 1018.7 |
| 20260508030021 | 44 | 91 | 7.0 | 10.0 | 0.00 | 0.00 | 0.00 | 71 | 1018.5 |
| 20260508025506 | 44 | 89 | 6.0 | 10.0 | 0.00 | 0.00 | 0.00 | 70 | 1018.4 |
| 20260508025006 | 44 | 122 | 7.0 | 12.0 | 0.00 | 0.00 | 0.00 | 70 | 1018.4 |
| 20260508024504 | 44 | 101 | 8.0 | 12.0 | 0.00 | 0.00 | 0.00 | 70 | 1018.4 |
| 20260508024003 | 44 | 104 | 9.0 | 12.0 | 0.00 | 0.00 | 0.00 | 68 | 1018.3 |
| 20260508023503 | 45 | 101 | 3.0 | 5.0 | 0.00 | 0.00 | 0.00 | 65 | 1018.4 |
| 20260508023006 | 45 | 153 | 1.0 | 4.0 | 0.00 | 0.00 | 0.00 | 65 | 1018.3 |
| 20260508022508 | 45 | 152 | 2.0 | 5.0 | 0.00 | 0.00 | 0.00 | 67 | 1018.3 |
| 20260508022004 | 45 | 146 | 2.0 | 5.0 | 0.00 | 0.00 | 0.00 | 67 | 1018.3 |
| 20260508021508 | 45 | 146 | 1.0 | 6.0 | 0.00 | 0.00 | 0.00 | 67 | 1018.3 |
| 20260508021004 | 45 | 139 | 1.0 | 6.0 | 0.00 | 0.00 | 0.00 | 67 | 1018.2 |
| 20260508020502 | 44 | 142 | 2.0 | 7.0 | 0.00 | 0.00 | 0.00 | 69 | 1018.3 |
| 20260508020026 | 44 | 163 | 3.0 | 12.0 | 0.00 | 0.00 | 0.00 | 69 | 1018.2 |
| 20260508015503 | 44 | 110 | 8.0 | 12.0 | 0.00 | 0.00 | 0.00 | 68 | 1018.1 |
| 20260508015003 | 44 | 125 | 7.0 | 11.0 | 0.00 | 0.00 | 0.00 | 69 | 1018.2 |
| 20260508014522 | 44 | 126 | 5.0 | 11.0 | 0.00 | 0.00 | 0.00 | 70 | 1018.3 |
| 20260508014008 | 44 | 158 | 5.0 | 9.0 | 0.00 | 0.00 | 0.00 | 70 | 1018.2 |
| 20260508013506 | 44 | 133 | 5.0 | 7.0 | 0.00 | 0.00 | 0.00 | 71 | 1018.2 |
| 20260508013023 | 45 | 144 | 2.0 | 10.0 | 0.00 | 0.00 | 0.00 | 71 | 1018.1 |
| 20260508012506 | 45 | 207 | 3.0 | 11.0 | 0.00 | 0.00 | 0.00 | 71 | 1018.2 |
| 20260508012003 | 45 | 263 | 7.0 | 21.0 | 0.00 | 0.00 | 0.00 | 67 | 1018.4 |
| 20260508011504 | 46 | 243 | 8.0 | 21.0 | 0.00 | 0.00 | 0.00 | 65 | 1018.7 |
| 20260508011004 | 48 | 266 | 9.0 | 15.0 | 0.00 | 0.00 | 0.00 | 56 | 1018.9 |
| 20260508010503 | 49 | 266 | 9.0 | 15.0 | 0.00 | 0.00 | 0.00 | 52 | 1018.5 |
| 20260508010011 | 49 | 262 | 9.0 | 18.0 | 0.00 | 0.00 | 0.00 | 51 | 1018.2 |
| 20260508005505 | 50 | 267 | 8.0 | 18.0 | 0.00 | 0.00 | 0.00 | 51 | 1018.2 |
| 20260508005007 | 50 | 306 | 5.0 | 12.0 | 0.00 | 0.00 | 0.00 | 49 | 1018.2 |
| 20260508004514 | 51 | 283 | 6.0 | 13.0 | 0.00 | 0.00 | 0.00 | 48 | 1018.2 |
| 20260508004005 | 51 | 289 | 9.0 | 13.0 | 0.00 | 0.00 | 0.00 | 47 | 1018.2 |
| 20260508003503 | 51 | 306 | 8.0 | 12.0 | 0.00 | 0.00 | 0.00 | 46 | 1018.0 |
| 20260508003019 | 52 | 302 | 7.0 | 13.0 | 0.00 | 0.00 | 0.00 | 47 | 1018.1 |
| 20260508002507 | 51 | 292 | 7.0 | 17.0 | 0.00 | 0.00 | 0.00 | 49 | 1018.2 |
| 20260508002010 | 50 | 276 | 9.0 | 17.0 | 0.00 | 0.00 | 0.00 | 51 | 1018.1 |
| 20260508001538 | 50 | 265 | 11.0 | 15.0 | 0.00 | 0.00 | 0.00 | 50 | 1018.2 |
| 20260508001003 | 50 | 285 | 11.0 | 34.0 | 0.00 | 0.00 | 0.00 | 50 | 1018.1 |
| 20260508000507 | 50 | 293 | 12.0 | 34.0 | 0.00 | 0.00 | 0.00 | 52 | 1018.2 |
| 20260508000007 | 52 | 289 | 18.0 | 31.0 | 0.00 | 0.00 | 0.00 | 45 | 1018.0 |
| 20260507235504 | 53 | 298 | 13.0 | 20.0 | 0.00 | 0.00 | 0.00 | 37 | 1017.5 |
| 20260507235006 | 54 | 300 | 13.0 | 19.0 | 0.00 | 0.00 | 0.00 | 38 | 1017.2 |
| 20260507234515 | 54 | 283 | 8.0 | 14.0 | 0.00 | 0.00 | 0.00 | 37 | 1017.0 |
| 20260507234051 | 54 | 295 | 7.0 | 16.0 | 0.00 | 0.00 | 0.00 | 41 | 1017.0 |
| 20260507233503 | 54 | 306 | 8.0 | 16.0 | 0.00 | 0.00 | 0.00 | 40 | 1017.0 |
| 20260507233018 | 55 | 305 | 8.0 | 16.0 | 0.00 | 0.00 | 0.00 | 40 | 1017.1 |
| 20260507232504 | 54 | 273 | 6.0 | 16.0 | 0.00 | 0.00 | 0.00 | 40 | 1017.2 |
| 20260507232007 | 54 | 285 | 10.0 | 17.0 | 0.00 | 0.00 | 0.00 | 38 | 1017.3 |
| 20260507231524 | 55 | 315 | 5.0 | 17.0 | 0.00 | 0.00 | 0.00 | 41 | 1017.3 |
| 20260507231007 | 56 | 269 | 7.0 | 14.0 | 0.00 | 0.00 | 0.00 | 40 | 1017.3 |
| 20260507230507 | 56 | 293 | 7.0 | 14.0 | 0.00 | 0.00 | 0.00 | 38 | 1017.3 |
| 20260507230027 | 56 | 295 | 8.0 | 16.0 | 0.00 | 0.00 | 0.00 | 38 | 1017.4 |
| 20260507225510 | 56 | 276 | 9.0 | 17.0 | 0.00 | 0.00 | 0.00 | 40 | 1017.6 |
| 20260507225003 | 54 | 296 | 10.0 | 17.0 | 0.00 | 0.00 | 0.00 | 41 | 1017.6 |
| 20260507224507 | 53 | 303 | 8.0 | 15.0 | 0.00 | 0.00 | 0.00 | 40 | 1017.6 |
| 20260507224007 | 54 | 285 | 10.0 | 17.0 | 0.00 | 0.00 | 0.00 | 39 | 1017.6 |
| 20260507223506 | 55 | 285 | 9.0 | 17.0 | 0.00 | 0.00 | 0.00 | 38 | 1017.8 |
| 20260507223012 | 56 | 268 | 11.0 | 19.0 | 0.00 | 0.00 | 0.00 | 36 | 1017.6 |
| 20260507222502 | 55 | 285 | 13.0 | 22.0 | 0.00 | 0.00 | 0.00 | 37 | 1017.6 |
| 20260507222006 | 56 | 293 | 15.0 | 23.0 | 0.00 | 0.00 | 0.00 | 36 | 1017.8 |
| 20260507221516 | 56 | 300 | 14.0 | 23.0 | 0.00 | 0.00 | 0.00 | 35 | 1017.9 |
| 20260507221007 | 56 | 283 | 10.0 | 23.0 | 0.00 | 0.00 | 0.00 | 38 | 1017.9 |
| 20260507220508 | 56 | 309 | 13.0 | 25.0 | 0.00 | 0.00 | 0.00 | 37 | 1017.8 |
| 20260507220037 | 56 | 297 | 16.0 | 25.0 | 0.00 | 0.00 | 0.00 | 35 | 1018.0 |
| 20260507215508 | 56 | 300 | 15.0 | 23.0 | 0.00 | 0.00 | 0.00 | 34 | 1018.0 |
| 20260507215010 | 56 | 287 | 15.0 | 23.0 | 0.00 | 0.00 | 0.00 | 34 | 1018.0 |
| 20260507214530 | 56 | 281 | 14.0 | 25.0 | 0.00 | 0.00 | 0.00 | 38 | 1018.0 |
| 20260507214007 | 56 | 297 | 10.0 | 25.0 | 0.00 | 0.00 | 0.00 | 36 | 1018.1 |
| 20260507213503 | 56 | 314 | 7.0 | 18.0 | 0.00 | 0.00 | 0.00 | 36 | 1018.2 |
| 20260507213010 | 56 | 270 | 7.0 | 18.0 | 0.00 | 0.00 | 0.00 | 35 | 1018.3 |
| 20260507212503 | 55 | 302 | 8.0 | 20.0 | 0.00 | 0.00 | 0.00 | 41 | 1018.5 |
| 20260507212004 | 54 | 288 | 8.0 | 21.0 | 0.00 | 0.00 | 0.00 | 41 | 1018.6 |
| 20260507211513 | 55 | 309 | 15.0 | 21.0 | 0.00 | 0.00 | 0.00 | 40 | 1018.7 |
| 20260507211006 | 55 | 274 | 14.0 | 21.0 | 0.00 | 0.00 | 0.00 | 40 | 1018.8 |
| 20260507210503 | 55 | 307 | 7.0 | 18.0 | 0.00 | 0.01 | 0.00 | 44 | 1018.8 |
| 20260507210020 | 55 | 296 | 12.0 | 18.0 | 0.00 | 0.01 | 0.00 | 41 | 1018.9 |
| 20260507205506 | 54 | 282 | 10.0 | 17.0 | 0.00 | 0.02 | 0.00 | 43 | 1019.1 |
| 20260507205007 | 54 | 299 | 10.0 | 20.0 | 0.00 | 0.02 | 0.00 | 42 | 1019.1 |
| 20260507204522 | 54 | 304 | 8.0 | 20.0 | 0.00 | 0.02 | 0.00 | 45 | 1019.2 |
| 20260507204013 | 54 | 293 | 14.0 | 24.0 | 0.00 | 0.02 | 0.00 | 42 | 1019.3 |
| 20260507203509 | 53 | 278 | 11.0 | 24.0 | 0.00 | 0.02 | 0.00 | 44 | 1019.5 |
| 20260507203032 | 53 | 288 | 12.0 | 23.0 | 0.00 | 0.02 | 0.00 | 42 | 1019.5 |
| 20260507202512 | 54 | 304 | 11.0 | 25.0 | 0.00 | 0.02 | 0.00 | 43 | 1019.5 |
| 20260507202007 | 54 | 296 | 13.0 | 25.0 | 0.00 | 0.02 | 0.00 | 42 | 1019.4 |
| 20260507201509 | 53 | 300 | 10.0 | 24.0 | 0.00 | 0.03 | 0.00 | 45 | 1019.7 |
| 20260507201005 | 53 | 336 | 13.0 | 24.0 | 0.00 | 0.03 | 0.00 | 44 | 1019.8 |
| 20260507200504 | 53 | 293 | 8.0 | 23.0 | 0.00 | 0.03 | 0.00 | 40 | 1019.8 |
| 20260507200019 | 52 | 295 | 12.0 | 21.0 | 0.00 | 0.03 | 0.00 | 42 | 1019.8 |
| 20260507195504 | 52 | 290 | 11.0 | 21.0 | 0.00 | 0.03 | 0.00 | 43 | 1020.0 |
| 20260507195005 | 52 | 280 | 7.0 | 22.0 | 0.00 | 0.03 | 0.00 | 46 | 1019.9 |
| 20260507194522 | 51 | 298 | 8.0 | 22.0 | 0.00 | 0.03 | 0.00 | 45 | 1019.9 |
| 20260507194007 | 51 | 280 | 12.0 | 20.0 | 0.00 | 0.03 | 0.00 | 45 | 1020.0 |
| 20260507193507 | 52 | 291 | 9.0 | 22.0 | 0.00 | 0.04 | 0.00 | 42 | 1020.1 |
| 20260507193028 | 52 | 269 | 6.0 | 22.0 | 0.00 | 0.04 | 0.00 | 45 | 1020.1 |
| 20260507192509 | 52 | 244 | 12.0 | 19.0 | 0.00 | 0.05 | 0.00 | 41 | 1020.1 |
| 20260507192007 | 52 | 283 | 10.0 | 17.0 | 0.00 | 0.06 | 0.00 | 45 | 1020.0 |
| 20260507191528 | 52 | 281 | 9.0 | 21.0 | 0.00 | 0.07 | 0.00 | 43 | 1020.1 |
| 20260507191009 | 52 | 292 | 11.0 | 21.0 | 0.00 | 0.08 | 0.00 | 43 | 1020.1 |
| 20260507190508 | 52 | 285 | 10.0 | 19.0 | 0.00 | 0.09 | 0.00 | 44 | 1020.2 |
| 20260507190028 | 52 | 260 | 10.0 | 19.0 | 0.00 | 0.09 | 0.00 | 41 | 1020.2 |
| 20260507185508 | 51 | 278 | 10.0 | 20.0 | 0.00 | 0.10 | 0.00 | 44 | 1020.4 |
| 20260507185006 | 52 | 283 | 9.0 | 22.0 | 0.00 | 0.11 | 0.00 | 43 | 1020.3 |
| 20260507184515 | 51 | 269 | 14.0 | 22.0 | 0.00 | 0.12 | 0.00 | 46 | 1020.4 |
| 20260507184010 | 51 | 288 | 16.0 | 25.0 | 0.00 | 0.14 | 0.00 | 42 | 1020.4 |
| 20260507183510 | 51 | 293 | 16.0 | 25.0 | 0.00 | 0.15 | 0.00 | 43 | 1020.4 |
| 20260507183023 | 51 | 286 | 8.0 | 22.0 | 0.00 | 0.17 | 0.00 | 44 | 1020.4 |
| 20260507182507 | 50 | 288 | 11.0 | 27.0 | 0.00 | 0.18 | 0.00 | 43 | 1020.4 |
| 20260507182009 | 50 | 264 | 14.0 | 27.0 | 0.00 | 0.20 | 0.00 | 45 | 1020.4 |
| 20260507181526 | 50 | 304 | 10.0 | 19.0 | 0.00 | 0.21 | 0.00 | 44 | 1020.4 |
| 20260507181003 | 49 | 287 | 9.0 | 23.0 | 0.00 | 0.22 | 0.00 | 45 | 1020.5 |
| 20260507180506 | 48 | 280 | 11.0 | 23.0 | 0.00 | 0.23 | 0.00 | 45 | 1020.6 |
| 20260507180009 | 48 | 290 | 5.0 | 17.0 | 0.00 | 0.23 | 0.00 | 45 | 1020.7 |
| 20260507175502 | 48 | 285 | 10.0 | 17.0 | 0.00 | 0.24 | 0.00 | 48 | 1020.8 |
| 20260507175003 | 47 | 285 | 10.0 | 16.0 | 0.00 | 0.24 | 0.00 | 46 | 1021.0 |
| 20260507174524 | 46 | 307 | 7.0 | 16.0 | 0.00 | 0.24 | 0.00 | 49 | 1021.0 |
| 20260507174008 | 46 | 266 | 6.0 | 17.0 | 0.00 | 0.24 | 0.00 | 52 | 1021.0 |
| 20260507173509 | 44 | 285 | 6.0 | 17.0 | 0.00 | 0.24 | 0.00 | 50 | 1021.2 |
| 20260507173022 | 44 | 276 | 6.0 | 11.0 | 0.00 | 0.24 | 0.00 | 48 | 1021.4 |
| 20260507172508 | 44 | 292 | 8.0 | 13.0 | 0.00 | 0.24 | 0.00 | 49 | 1021.4 |
| 20260507172007 | 44 | 261 | 8.0 | 13.0 | 0.00 | 0.24 | 0.00 | 49 | 1021.4 |
| 20260507171523 | 43 | 311 | 5.0 | 8.0 | 0.00 | 0.24 | 0.00 | 52 | 1021.4 |
| 20260507171008 | 43 | 310 | 2.0 | 4.0 | 0.00 | 0.24 | 0.00 | 50 | 1021.5 |
| 20260507170507 | 43 | 18 | 0.0 | 6.0 | 0.00 | 0.24 | 0.00 | 52 | 1021.6 |
| 20260507170040 | 43 | 335 | 1.0 | 7.0 | 0.00 | 0.24 | 0.00 | 51 | 1021.6 |
| 20260507165510 | 43 | 72 | 2.0 | 10.0 | 0.00 | 0.24 | 0.00 | 50 | 1021.6 |
| 20260507165003 | 43 | 115 | 0.0 | 10.0 | 0.00 | 0.24 | 0.00 | 51 | 1021.7 |
| 20260507164512 | 42 | 83 | 2.0 | 10.0 | 0.00 | 0.24 | 0.00 | 53 | 1021.7 |
| 20260507164005 | 42 | 311 | 2.0 | 7.0 | 0.00 | 0.24 | 0.00 | 49 | 1021.8 |
| 20260507163506 | 42 | 304 | 1.0 | 9.0 | 0.00 | 0.24 | 0.00 | 53 | 1021.9 |
| 20260507163014 | 41 | 335 | 3.0 | 10.0 | 0.00 | 0.24 | 0.00 | 51 | 1022.0 |
| 20260507162506 | 40 | 326 | 3.0 | 11.0 | 0.00 | 0.24 | 0.00 | 53 | 1022.1 |
| 20260507162006 | 40 | 330 | 7.0 | 11.0 | 0.00 | 0.24 | 0.00 | 52 | 1022.2 |
| 20260507161520 | 40 | 316 | 6.0 | 11.0 | 0.00 | 0.24 | 0.00 | 54 | 1022.3 |
| 20260507161005 | 40 | 336 | 6.0 | 9.0 | 0.00 | 0.24 | 0.00 | 52 | 1022.3 |
| 20260507160507 | 39 | 59 | 0.0 | 6.0 | 0.00 | 0.24 | 0.00 | 55 | 1022.2 |
| 20260507160026 | 38 | 79 | 2.0 | 8.0 | 0.00 | 0.24 | 0.00 | 51 | 1022.3 |
| 20260507155507 | 38 | 48 | 4.0 | 8.0 | 0.00 | 0.24 | 0.00 | 53 | 1022.3 |
| 20260507155009 | 37 | 345 | 2.0 | 5.0 | 0.00 | 0.24 | 0.00 | 58 | 1022.4 |
| 20260507154527 | 36 | 344 | 1.0 | 4.0 | 0.00 | 0.24 | 0.00 | 59 | 1022.3 |
| 20260507154009 | 36 | 61 | 1.0 | 3.0 | 0.00 | 0.24 | 0.00 | 58 | 1022.6 |
| 20260507153504 | 35 | 83 | 1.0 | 3.0 | 0.00 | 0.24 | 0.00 | 58 | 1022.5 |
| 20260507153010 | 35 | 334 | 0.0 | 3.0 | 0.00 | 0.24 | 0.00 | 60 | 1022.7 |
| 20260507152506 | 34 | 72 | 0.0 | 3.0 | 0.00 | 0.24 | 0.00 | 64 | 1022.9 |
| 20260507152010 | 34 | 350 | 0.0 | 4.0 | 0.00 | 0.24 | 0.00 | 61 | 1022.9 |
| 20260507151518 | 34 | 356 | 2.0 | 4.0 | 0.00 | 0.24 | 0.00 | 62 | 1023.0 |
| 20260507151007 | 34 | 321 | 0.0 | 3.0 | 0.00 | 0.24 | 0.00 | 65 | 1023.1 |
| 20260507150506 | 33 | 354 | 1.0 | 3.0 | 0.00 | 0.24 | 0.00 | 65 | 1023.2 |
| 20260507150029 | 33 | 310 | 0.0 | 1.0 | 0.00 | 0.24 | 0.00 | 69 | 1023.4 |
| 20260507145507 | 33 | 330 | 0.0 | 0.0 | 0.00 | 0.24 | 0.00 | 68 | 1023.4 |
| 20260507145007 | 32 | 86 | 0.0 | 2.0 | 0.00 | 0.24 | 0.00 | 70 | 1023.4 |
| 20260507144525 | 31 | 297 | 0.0 | 2.0 | 0.00 | 0.24 | 0.00 | 68 | 1023.4 |
| 20260507144010 | 31 | 308 | 0.0 | 2.0 | 0.00 | 0.24 | 0.00 | 69 | 1023.6 |
| 20260507143511 | 30 | 305 | 0.0 | 2.0 | 0.00 | 0.24 | 0.00 | 72 | 1023.6 |
| 20260507143028 | 29 | 278 | 0.0 | 0.0 | 0.00 | 0.24 | 0.00 | 72 | 1023.8 |
| 20260507142507 | 29 | 355 | 0.0 | 0.0 | 0.00 | 0.24 | 0.00 | 73 | 1023.7 |
| 20260507142010 | 29 | 38 | 0.0 | 2.0 | 0.00 | 0.24 | 0.00 | 76 | 1023.7 |
| 20260507141515 | 28 | 101 | 0.0 | 3.0 | 0.00 | 0.24 | 0.00 | 77 | 1023.7 |
| 20260507141007 | 28 | 59 | 0.0 | 3.0 | 0.00 | 0.24 | 0.00 | 76 | 1023.8 |
| 20260507140506 | 27 | 301 | 0.0 | 4.0 | 0.00 | 0.24 | 0.00 | 78 | 1023.9 |
| 20260507140020 | 27 | 335 | 0.0 | 4.0 | 0.00 | 0.24 | 0.00 | 79 | 1023.9 |
| 20260507135510 | 26 | 297 | 3.0 | 4.0 | 0.00 | 0.24 | 0.00 | 80 | 1024.0 |
| 20260507135008 | 26 | 313 | 0.0 | 2.0 | 0.00 | 0.24 | 0.00 | 80 | 1023.9 |
| 20260507134524 | 26 | 71 | 0.0 | 0.0 | 0.00 | 0.24 | 0.00 | 78 | 1023.7 |
| 20260507134010 | 26 | 87 | 0.0 | 0.0 | 0.00 | 0.24 | 0.00 | 76 | 1023.9 |
| 20260507133508 | 27 | 82 | 0.0 | 0.0 | 0.00 | 0.24 | 0.00 | 79 | 1023.9 |
| 20260507133026 | 26 | 78 | 0.0 | 0.0 | 0.00 | 0.24 | 0.00 | 79 | 1024.0 |
| 20260507132512 | 25 | 80 | 0.0 | 0.0 | 0.00 | 0.24 | 0.00 | 81 | 1024.0 |
| 20260507132010 | 24 | 108 | 0.0 | 0.0 | 0.00 | 0.24 | 0.00 | 85 | 1024.0 |
| 20260507131534 | 23 | 160 | 0.0 | 0.0 | 0.00 | 0.24 | 0.00 | 86 | 1024.0 |
| 20260507131009 | 22 | 260 | 0.0 | 0.0 | 0.00 | 0.24 | 0.00 | 85 | 1024.0 |
| 20260507130511 | 21 | 61 | 0.0 | 0.0 | 0.00 | 0.24 | 0.00 | 87 | 1024.1 |
| 20260507130029 | 20 | 61 | 0.0 | 0.0 | 0.00 | 0.24 | 0.00 | 88 | 1024.0 |
| 20260507125509 | 20 | 61 | 0.0 | 0.0 | 0.00 | 0.24 | 0.00 | 88 | 1023.9 |
| 20260507125004 | 19 | 61 | 0.0 | 0.0 | 0.00 | 0.24 | 0.00 | 88 | 1023.9 |
| 20260507124519 | 19 | 61 | 0.0 | 0.0 | 0.00 | 0.24 | 0.00 | 87 | 1023.7 |
| 20260507124011 | 19 | 288 | 0.0 | 0.0 | 0.00 | 0.24 | 0.00 | 87 | 1023.6 |
| 20260507123508 | 19 | 283 | 0.0 | 0.0 | 0.00 | 0.24 | 0.00 | 87 | 1023.6 |
| 20260507123022 | 19 | 194 | 0.0 | 0.0 | 0.00 | 0.24 | 0.00 | 87 | 1023.6 |
| 20260507122507 | 19 | 194 | 0.0 | 0.0 | 0.00 | 0.24 | 0.00 | 88 | 1023.7 |
| 20260507122011 | 19 | 194 | 0.0 | 0.0 | 0.00 | 0.24 | 0.00 | 87 | 1023.7 |
| 20260507121508 | 19 | 194 | 0.0 | 0.0 | 0.00 | 0.24 | 0.00 | 88 | 1023.6 |
| 20260507121005 | 19 | 193 | 0.0 | 0.0 | 0.00 | 0.24 | 0.00 | 89 | 1023.6 |
| 20260507120503 | 19 | 193 | 0.0 | 0.0 | 0.00 | 0.24 | 0.00 | 88 | 1023.6 |
| 20260507120024 | 19 | 195 | 0.0 | 0.0 | 0.00 | 0.24 | 0.00 | 87 | 1023.6 |
| 20260507115504 | 19 | 214 | 0.0 | 0.0 | 0.00 | 0.24 | 0.00 | 87 | 1023.6 |
| 20260507115003 | 19 | 214 | 0.0 | 0.0 | 0.00 | 0.24 | 0.00 | 87 | 1023.7 |
| 20260507114520 | 20 | 234 | 0.0 | 0.0 | 0.00 | 0.24 | 0.00 | 89 | 1023.6 |
| 20260507114003 | 19 | 207 | 0.0 | 0.0 | 0.00 | 0.24 | 0.00 | 89 | 1023.4 |
| 20260507113503 | 19 | 201 | 0.0 | 0.0 | 0.00 | 0.24 | 0.00 | 88 | 1023.4 |
| 20260507113023 | 20 | 119 | 0.0 | 0.0 | 0.00 | 0.24 | 0.00 | 88 | 1023.5 |
| 20260507112510 | 20 | 118 | 0.0 | 0.0 | 0.00 | 0.24 | 0.00 | 88 | 1023.5 |
| 20260507112008 | 20 | 118 | 0.0 | 0.0 | 0.00 | 0.24 | 0.00 | 88 | 1023.5 |
| 20260507111524 | 20 | 118 | 0.0 | 0.0 | 0.00 | 0.24 | 0.00 | 88 | 1023.5 |
| 20260507111003 | 20 | 118 | 0.0 | 0.0 | 0.00 | 0.24 | 0.00 | 88 | 1023.4 |
| 20260507110503 | 20 | 217 | 0.0 | 0.0 | 0.00 | 0.24 | 0.00 | 87 | 1023.3 |
| 20260507110009 | 21 | 217 | 0.0 | 0.0 | 0.00 | 0.24 | 0.00 | 87 | 1023.2 |
| 20260507105503 | 21 | 217 | 0.0 | 0.0 | 0.00 | 0.24 | 0.00 | 86 | 1023.3 |
| 20260507105004 | 21 | 217 | 0.0 | 0.0 | 0.00 | 0.24 | 0.00 | 86 | 1023.2 |
| 20260507104513 | 21 | 198 | 0.0 | 0.0 | 0.00 | 0.24 | 0.00 | 86 | 1023.2 |
| 20260507104004 | 21 | 214 | 0.0 | 1.0 | 0.00 | 0.24 | 0.00 | 88 | 1023.2 |
| 20260507103502 | 21 | 214 | 0.0 | 1.0 | 0.00 | 0.24 | 0.00 | 86 | 1023.2 |
| 20260507103018 | 21 | 210 | 0.0 | 0.0 | 0.00 | 0.24 | 0.00 | 87 | 1023.3 |
| 20260507102507 | 21 | 210 | 0.0 | 0.0 | 0.00 | 0.24 | 0.00 | 87 | 1023.3 |
| 20260507102006 | 21 | 274 | 0.0 | 0.0 | 0.00 | 0.24 | 0.00 | 87 | 1023.4 |
| 20260507101524 | 21 | 274 | 0.0 | 0.0 | 0.00 | 0.24 | 0.00 | 87 | 1023.3 |
| 20260507101006 | 21 | 274 | 0.0 | 0.0 | 0.00 | 0.24 | 0.00 | 88 | 1023.2 |
| 20260507100506 | 21 | 185 | 0.0 | 0.0 | 0.00 | 0.24 | 0.00 | 87 | 1023.2 |
| 20260507100033 | 21 | 148 | 0.0 | 0.0 | 0.00 | 0.24 | 0.00 | 87 | 1023.2 |
| 20260507095513 | 21 | 148 | 0.0 | 0.0 | 0.00 | 0.24 | 0.00 | 87 | 1023.3 |
| 20260507095010 | 21 | 148 | 0.0 | 0.0 | 0.00 | 0.24 | 0.00 | 87 | 1023.3 |
| 20260507094509 | 21 | 148 | 0.0 | 0.0 | 0.00 | 0.24 | 0.00 | 87 | 1023.2 |
| 20260507094003 | 21 | 148 | 0.0 | 0.0 | 0.00 | 0.24 | 0.00 | 86 | 1023.1 |
| 20260507093502 | 21 | 148 | 0.0 | 0.0 | 0.00 | 0.24 | 0.00 | 86 | 1023.2 |
| 20260507093010 | 21 | 221 | 0.0 | 0.0 | 0.00 | 0.24 | 0.00 | 86 | 1023.2 |
| 20260507092503 | 22 | 221 | 0.0 | 0.0 | 0.00 | 0.24 | 0.00 | 85 | 1023.2 |
| 20260507092005 | 22 | 221 | 0.0 | 0.0 | 0.00 | 0.24 | 0.00 | 86 | 1023.2 |
| 20260507091517 | 22 | 221 | 0.0 | 0.0 | 0.00 | 0.24 | 0.00 | 85 | 1023.2 |
| 20260507091004 | 22 | 221 | 0.0 | 0.0 | 0.00 | 0.24 | 0.00 | 84 | 1023.2 |
| 20260507090507 | 23 | 221 | 0.0 | 0.0 | 0.00 | 0.24 | 0.00 | 84 | 1023.2 |
| 20260507090023 | 23 | 221 | 0.0 | 0.0 | 0.00 | 0.24 | 0.00 | 84 | 1023.3 |
| 20260507085508 | 22 | 214 | 0.0 | 0.0 | 0.00 | 0.24 | 0.00 | 85 | 1023.3 |
| 20260507085008 | 22 | 214 | 0.0 | 0.0 | 0.00 | 0.24 | 0.00 | 85 | 1023.3 |
| 20260507084526 | 22 | 214 | 0.0 | 0.0 | 0.00 | 0.24 | 0.00 | 84 | 1023.5 |
| 20260507084006 | 23 | 234 | 0.0 | 0.0 | 0.00 | 0.24 | 0.00 | 83 | 1023.4 |
| 20260507083507 | 23 | 82 | 0.0 | 0.0 | 0.00 | 0.24 | 0.00 | 81 | 1023.3 |
| 20260507083026 | 23 | 126 | 0.0 | 0.0 | 0.00 | 0.24 | 0.00 | 80 | 1023.2 |
| 20260507082504 | 24 | 126 | 0.0 | 0.0 | 0.00 | 0.24 | 0.00 | 81 | 1023.2 |
| 20260507082004 | 24 | 126 | 0.0 | 0.0 | 0.00 | 0.24 | 0.00 | 81 | 1023.3 |
| 20260507081530 | 24 | 126 | 0.0 | 0.0 | 0.00 | 0.24 | 0.00 | 81 | 1023.3 |
| 20260507081005 | 24 | 126 | 0.0 | 0.0 | 0.00 | 0.24 | 0.00 | 81 | 1023.4 |
| 20260507080503 | 24 | 126 | 0.0 | 0.0 | 0.00 | 0.24 | 0.00 | 81 | 1023.4 |
| 20260507080021 | 24 | 125 | 0.0 | 0.0 | 0.00 | 0.24 | 0.00 | 80 | 1023.4 |
| 20260507075509 | 24 | 261 | 0.0 | 0.0 | 0.00 | 0.24 | 0.00 | 79 | 1023.2 |
| 20260507075007 | 24 | 261 | 0.0 | 0.0 | 0.00 | 0.24 | 0.00 | 78 | 1023.1 |
| 20260507074541 | 25 | 70 | 0.0 | 0.0 | 0.00 | 0.24 | 0.00 | 77 | 1023.1 |
| 20260507074006 | 25 | 70 | 0.0 | 0.0 | 0.00 | 0.24 | 0.00 | 77 | 1023.3 |
| 20260507073506 | 25 | 70 | 0.0 | 0.0 | 0.00 | 0.24 | 0.00 | 77 | 1023.5 |
| 20260507073024 | 25 | 66 | 0.0 | 0.0 | 0.00 | 0.24 | 0.00 | 78 | 1023.6 |
| 20260507072509 | 25 | 67 | 0.0 | 0.0 | 0.00 | 0.24 | 0.00 | 79 | 1023.5 |
| 20260507072010 | 25 | 343 | 0.0 | 0.0 | 0.00 | 0.24 | 0.00 | 78 | 1023.6 |
| 20260507071529 | 25 | 343 | 0.0 | 1.0 | 0.00 | 0.24 | 0.00 | 78 | 1023.6 |
| 20260507071006 | 25 | 354 | 0.0 | 1.0 | 0.00 | 0.24 | 0.00 | 78 | 1023.4 |
| 20260507070507 | 25 | 9 | 0.0 | 0.0 | 0.00 | 0.24 | 0.00 | 78 | 1023.4 |
| 20260507070019 | 25 | 60 | 0.0 | 0.0 | 0.00 | 0.24 | 0.00 | 78 | 1023.5 |
| 20260507065505 | 25 | 51 | 0.0 | 0.0 | 0.00 | 0.24 | 0.00 | 77 | 1023.4 |
| 20260507065006 | 25 | 51 | 0.0 | 0.0 | 0.00 | 0.24 | 0.00 | 76 | 1023.4 |
| 20260507064519 | 25 | 58 | 0.0 | 0.0 | 0.00 | 0.24 | 0.00 | 77 | 1023.5 |
| 20260507064006 | 26 | 58 | 0.0 | 2.0 | 0.00 | 0.24 | 0.00 | 76 | 1023.6 |
| 20260507063507 | 26 | 284 | 0.0 | 3.0 | 0.00 | 0.24 | 0.00 | 75 | 1023.6 |
| 20260507063027 | 27 | 284 | 2.0 | 3.0 | 0.00 | 0.24 | 0.00 | 73 | 1023.4 |
| 20260507062507 | 28 | 204 | 0.0 | 6.0 | 0.00 | 0.24 | 0.00 | 68 | 1023.4 |
| 20260507062009 | 28 | 183 | 0.0 | 6.0 | 0.00 | 0.24 | 0.00 | 68 | 1023.3 |
| 20260507061524 | 28 | 121 | 4.0 | 6.0 | 0.00 | 0.24 | 0.00 | 69 | 1023.2 |
| 20260507061007 | 28 | 120 | 0.0 | 3.0 | 0.00 | 0.24 | 0.00 | 69 | 1023.3 |
| 20260507060507 | 28 | 68 | 0.0 | 2.0 | 0.00 | 0.24 | 0.00 | 68 | 1023.3 |
| 20260507060029 | 28 | 171 | 0.0 | 2.0 | 0.00 | 0.24 | 0.00 | 65 | 1023.4 |
| 20260507055507 | 28 | 193 | 0.0 | 2.0 | 0.00 | 0.24 | 0.24 | 65 | 1023.5 |
| 20260507055008 | 29 | 193 | 0.0 | 2.0 | 0.00 | 0.24 | 0.24 | 65 | 1023.5 |
| 20260507054528 | 30 | 219 | 0.0 | 2.0 | 0.00 | 0.24 | 0.24 | 60 | 1023.6 |